www.dot.il.gov - /desenv/hwystds/rev212/Web DGNs/


[To Parent Directory]

Wednesday, August 11, 2010 1:33 PM 24646656 1_Rev211_AllHighwayStandards_DGN.exe
Wednesday, August 11, 2010 1:35 PM 378880 1_Rev212_Div000_DGN.exe
Wednesday, August 11, 2010 1:37 PM 413184 1_Rev212_Div200_DGN.exe
Wednesday, August 11, 2010 1:54 PM 142336 1_Rev212_Div300_DGN.exe
Wednesday, August 11, 2010 1:43 PM 4539904 1_Rev212_Div400_DGN.exe
Wednesday, August 11, 2010 1:44 PM 3944960 1_Rev212_Div500_DGN.exe
Friday, August 13, 2010 10:48 AM 8660480 1_Rev212_Div600_DGN.exe
Wednesday, August 11, 2010 1:48 PM 3329536 1_Rev212_Div700_DGN.exe
Wednesday, August 11, 2010 1:49 PM 1865728 1_Rev212_Div800_DGN.exe
Wednesday, August 11, 2010 1:50 PM 1683968 1_Rev212_DivBLR_DGN.exe
Wednesday, August 11, 2010 9:34 AM 303616 212-000001-06_standardsymbolsabbreviations&patterns.dgn
Wednesday, August 11, 2010 9:36 AM 59392 212-001001-02_areasofreinfrebars.dgn
Wednesday, August 11, 2010 9:36 AM 65536 212-001006_decimalofinch&foot.dgn
Wednesday, August 11, 2010 9:36 AM 67584 212-202001-01_earthmedditchcheck.dgn
Wednesday, August 11, 2010 9:36 AM 305152 212-280001-05_temperosioncntrlsystems.dgn
Wednesday, August 11, 2010 9:36 AM 96768 212-285001-02_fabricformedconcrevetmentmats.dgn
Wednesday, August 11, 2010 9:36 AM 136192 212-353001-04_pccbsecsewithhmabind&surfcses.dgn
Wednesday, August 11, 2010 9:36 AM 135168 212-406001-05_entrramptermflexpvmt.dgn
Wednesday, August 11, 2010 9:36 AM 260096 212-406101-04_exitrampterminalflexiblepvmt.dgn
Wednesday, August 11, 2010 9:36 AM 105984 212-406201-01_mailboxturnout.dgn
Wednesday, August 11, 2010 9:36 AM 242176 212-420001-07_pavementjoints.dgn
Wednesday, August 11, 2010 9:36 AM 80384 212-420101-04_24ftjointedpccpvmt.dgn
Wednesday, August 11, 2010 9:36 AM 114176 212-420106-04_36ftjointedpccpvmt.dgn
Wednesday, August 11, 2010 9:34 AM 111616 212-420111-03_pccpvmtroundouts.dgn
Wednesday, August 11, 2010 9:36 AM 227840 212-420201-07_entrrampterm-pccadjtopcc.dgn
Wednesday, August 11, 2010 9:36 AM 240640 212-420206-08_entrrampterm-pccadjtocrc.dgn
Wednesday, August 11, 2010 9:36 AM 315392 212-420301-04_exitrampterm-pccadjtopcc.dgn
Wednesday, August 11, 2010 9:36 AM 317952 212-420306-06_exitrampterm-pccadjtocrc.dgn
Wednesday, August 11, 2010 9:36 AM 160768 212-420401-08_bridgeapproachpvmt.dgn
Wednesday, August 11, 2010 9:36 AM 112128 212-420501-04_pccpvmt&pccbsecseadjtorrgradexing.dgn
Wednesday, August 11, 2010 9:36 AM 91136 212-420601-05_24ftpccpvmt.dgn
Wednesday, August 11, 2010 9:36 AM 77312 212-420701-02_pavementfabric.dgn
Wednesday, August 11, 2010 9:36 AM 64000 212-421001-02_barreinfforcrcpvmt.dgn
Wednesday, August 11, 2010 9:34 AM 377856 212-421101-08_24ftcrcpvmt-wwideflangebeamtermjt.dgn
Wednesday, August 11, 2010 9:34 AM 335872 212-421106-08_36ftcrcpvmt-wwideflangebeamtermjt.dgn
Wednesday, August 11, 2010 9:36 AM 364032 212-421201-06_24ftcrcpvmt-wlugsys.dgn
Wednesday, August 11, 2010 9:36 AM 386560 212-421206-06_36ftcrcpvmt-wlugsys.dgn
Wednesday, August 11, 2010 9:36 AM 234496 212-424001-05_curbrampsforsidewalk.dgn
Wednesday, August 11, 2010 9:36 AM 143872 212-442001-04_classapatches.dgn
Wednesday, August 11, 2010 9:36 AM 288256 212-442101-07_classbpatches.dgn
Wednesday, August 11, 2010 9:36 AM 169984 212-442201-03_classc&dpatches.dgn
Wednesday, August 11, 2010 9:36 AM 124416 212-482001-02_hmashldadjtoflexpvmt.dgn
Wednesday, August 11, 2010 9:36 AM 67072 212-482006-03_hmashldadjtorigidpvmt.dgn
Wednesday, August 11, 2010 9:36 AM 142848 212-482011-03_hmashldstrips(shlds)wresurforwiden&resurfproj.dgn
Wednesday, August 11, 2010 9:36 AM 143360 212-483001-04_pccshld.dgn
Wednesday, August 11, 2010 9:34 AM 169984 212-509001-02_tubularthriebeamretrofitrailforbridge.dgn
Wednesday, August 11, 2010 9:36 AM 98816 212-515001-03_nameplateforbridges.dgn
Wednesday, August 11, 2010 9:36 AM 69632 212-542001-02_reinfconcendsect-wparallelwngwalls12-48indiartangle.dgn
Wednesday, August 11, 2010 9:36 AM 89088 212-542101-02_reinfconcendsectforpipeculv15-36indiartangle.dgn
Wednesday, August 11, 2010 9:36 AM 122880 212-542106-02_reinfconcendsectforpipeculv42-60indiartangle.dgn
Wednesday, August 11, 2010 9:36 AM 133120 212-542111-02_reinfconcendsectforpipeculv66-84indiartangle.dgn
Wednesday, August 11, 2010 9:36 AM 140800 212-542116-02_reinfconcendsectformultpipeculv15-36indiartangle.dgn
Wednesday, August 11, 2010 9:36 AM 157184 212-542121-02_reinfconcendsectformultpipeculv42-60indiartangle.dgn
Wednesday, August 11, 2010 9:36 AM 309248 212-542201-02_reinfconcendsectforpipeculv15-36indiaskewed.dgn
Wednesday, August 11, 2010 9:34 AM 194560 212-542206-02_reinfconcendsectforpipeculv42-60indiaskewed.dgn
Wednesday, August 11, 2010 9:34 AM 80384 212-542301-03_precastreinfconcflaredendsect.dgn
Wednesday, August 11, 2010 9:36 AM 83456 212-542306-02_precastreinfconcellipticalflaredendsect.dgn
Wednesday, August 11, 2010 9:34 AM 204288 212-542311-02_gratingforconcflaredendsection24-54inpipe.dgn
Wednesday, August 11, 2010 9:36 AM 84480 212-542401-01_metalendsectforpipeculv.dgn
Wednesday, August 11, 2010 9:36 AM 82432 212-542406-01_metalendsectforpipearch.dgn
Wednesday, August 11, 2010 9:36 AM 204800 212-542501-02_inletboxtypea24in.dgn
Wednesday, August 11, 2010 9:36 AM 240640 212-542506-02_inletboxtypeb24in.dgn
Wednesday, August 11, 2010 9:36 AM 252416 212-542511-02_inletboxtypec24in.dgn
Wednesday, August 11, 2010 9:34 AM 276992 212-542516-03_inletboxtyped24in.dgn
Wednesday, August 11, 2010 9:36 AM 272384 212-542521-02_inletboxtypee24in.dgn
Wednesday, August 11, 2010 9:34 AM 263680 212-542526-03_inletboxtypef24in.dgn
Wednesday, August 11, 2010 9:34 AM 246784 212-542531-04_inletboxtypeg24in.dgn
Wednesday, August 11, 2010 9:36 AM 331264 212-542536-03_inletboxtypea36in.dgn
Wednesday, August 11, 2010 9:36 AM 332800 212-542541-02_inletboxtypea48in.dgn
Wednesday, August 11, 2010 9:36 AM 254464 212-542546-01_flushinletboxformedian.dgn
Wednesday, August 11, 2010 9:34 AM 61952 212-542601-03_rcpipeelbow.dgn
Wednesday, August 11, 2010 9:34 AM 220160 212-601001-04_subsurfdrains.dgn
Wednesday, August 11, 2010 9:36 AM 65024 212-601101-01_conchdwforpipedrain.dgn
Wednesday, August 11, 2010 9:34 AM 66048 212-602001-02_catchbasin-typea.dgn
Wednesday, August 11, 2010 9:34 AM 165888 212-602006-03_catchbasin-typeb.dgn
Wednesday, August 11, 2010 9:34 AM 100864 212-602011-02_catchbasin-typec.dgn
Wednesday, August 11, 2010 9:34 AM 105472 212-602016-02_catchbasin-typed.dgn
Wednesday, August 11, 2010 9:36 AM 215040 212-602101-02_drainstruc-type1&2&3.dgn
Wednesday, August 11, 2010 9:36 AM 216576 212-602106-01_drainstruc-type4&5&6.dgn
Wednesday, August 11, 2010 9:34 AM 70656 212-602301-03_inlet-typea.dgn
Wednesday, August 11, 2010 9:34 AM 65536 212-602306-03_inlet-typeb.dgn
Wednesday, August 11, 2010 9:34 AM 71680 212-602401-03_manhole-typea.dgn
Wednesday, August 11, 2010 9:34 AM 112640 212-602406-04_manhole-typea6ftdia.dgn
Wednesday, August 11, 2010 9:34 AM 115200 212-602411-02_manhole-typea7ftdia.dgn
Wednesday, August 11, 2010 9:34 AM 116224 212-602416-02_manhole-typea8ftdia.dgn
Wednesday, August 11, 2010 9:34 AM 114688 212-602421-02_manhole-typea9ftdia.dgn
Wednesday, August 11, 2010 9:34 AM 75264 212-602501-02_valvevault-typea.dgn
Wednesday, August 11, 2010 9:36 AM 81920 212-602601-02_precastreinfconcflatslabtop.dgn
Wednesday, August 11, 2010 9:36 AM 71168 212-602701-02_manholesteps.dgn
Wednesday, August 11, 2010 9:36 AM 78336 212-604001-03_frame&lids-type1.dgn
Wednesday, August 11, 2010 9:36 AM 105984 212-604006-04_Frame&GrateType3.dgn
Wednesday, August 11, 2010 9:37 AM 114688 212-604011-04_frame&gratetype3v.dgn
Wednesday, August 11, 2010 9:37 AM 70656 212-604016-02_frame&gratetype4.dgn
Wednesday, August 11, 2010 9:37 AM 85504 212-604021-02_baseframe&lidstype5.dgn
Wednesday, August 11, 2010 9:37 AM 86528 212-604026-02_Frame&GrateType6.dgn
Wednesday, August 11, 2010 9:37 AM 59904 212-604031-02_GrateType7.dgn
Wednesday, August 11, 2010 9:37 AM 53760 212-604036-02_GrateType8.dgn
Wednesday, August 11, 2010 9:37 AM 77312 212-604041-02_frame&gratetype9.dgn
Wednesday, August 11, 2010 9:37 AM 77824 212-604046-02_frame&gratetype10.dgn
Wednesday, August 11, 2010 9:37 AM 100864 212-604051-03_frame&gratetype11.dgn
Wednesday, August 11, 2010 9:37 AM 116224 212-604056-03_frame&gratetype11v.dgn
Wednesday, August 11, 2010 9:37 AM 83968 212-604061-02_frame&gratetype12.dgn
Wednesday, August 11, 2010 9:37 AM 107520 212-604066-02_frame&lidtype15.dgn
Wednesday, August 11, 2010 9:37 AM 79360 212-604071-04_frame&gratetype20.dgn
Wednesday, August 11, 2010 9:37 AM 97280 212-604076-04_frame&gratetype21.dgn
Wednesday, August 11, 2010 9:37 AM 85504 212-604081-04_frame&gratetype22.dgn
Wednesday, August 11, 2010 9:37 AM 144384 212-604086-02_frame&gratetype23.dgn
Wednesday, August 11, 2010 9:37 AM 137728 212-604091-02_frame&gratetype24.dgn
Wednesday, August 11, 2010 9:37 AM 150528 212-604101-01_medianinletfor24inrcpipe.dgn
Wednesday, August 11, 2010 9:37 AM 153088 212-604106-01_medianinletfor36inrcpipe.dgn
Wednesday, August 11, 2010 9:37 AM 173056 212-606001-04_conccurbtypeb&comboconcc&g.dgn
Wednesday, August 11, 2010 9:37 AM 225792 212-606006-02_outletsforconcc&g-typeb-6.24.dgn
Wednesday, August 11, 2010 9:37 AM 146944 212-606101-04_typeagut-inloutl&entr.dgn
Wednesday, August 11, 2010 9:37 AM 102400 212-606106-04_outltype1fortypeagut.dgn
Wednesday, August 11, 2010 9:37 AM 122368 212-606111-03_outltype2fortypeagut.dgn
Wednesday, August 11, 2010 9:37 AM 136192 212-606201-02_typebgut-inloutl&entr.dgn
Wednesday, August 11, 2010 9:37 AM 101888 212-606206-03_outltype1fortypebgut.dgn
Wednesday, August 11, 2010 9:37 AM 121856 212-606211-03_outltype2fortypebgut.dgn
Wednesday, August 11, 2010 9:37 AM 194560 212-606301-04_PCCIslands&Medians.dgn
Wednesday, August 11, 2010 9:37 AM 81408 212-606306-03_corrugatedpccmedians.dgn
Wednesday, August 11, 2010 9:37 AM 108032 212-606401-01_pavedditch.dgn
Wednesday, August 11, 2010 9:37 AM 268800 212-609001-05_bridgeapproachshldpvmt&drain.dgn
Wednesday, August 11, 2010 9:37 AM 281600 212-609006-05_BridgeApproachPvmt(DrainDetail).dgn
Wednesday, August 11, 2010 9:37 AM 288256 212-610001-05_ShldInletWithCurb.dgn
Wednesday, August 11, 2010 9:34 AM 207872 212-630001-09_SteelPlateBeamGrdrail.dgn
Friday, August 13, 2010 8:53 AM 142206 212-630101-09_GuardrailMountedOnExCulv.dgn
Wednesday, August 11, 2010 9:34 AM 71168 212-630106-LongSpanGuardrailOverCulvert.dgn
Wednesday, August 11, 2010 9:37 AM 89088 212-630201-06_PCC-BitStb@SteelPlateBeamGrdRail.dgn
Wednesday, August 11, 2010 9:37 AM 88064 212-630301-05_ShldWidenForType1GrdrailTerms.dgn
Wednesday, August 11, 2010 9:34 AM 94720 212-631006-08_TrafBarTermType1B.dgn
Wednesday, August 11, 2010 9:34 AM 84992 212-631011-07_TrafBarTermType2.dgn
Wednesday, August 11, 2010 9:37 AM 114176 212-631026-05_TrafBarTermType5.dgn
Wednesday, August 11, 2010 9:34 AM 197120 212-631031-09_TrafBarTermType6.dgn
Wednesday, August 11, 2010 9:34 AM 223744 212-631032-06_TrafBarTermType6A.dgn
Wednesday, August 11, 2010 9:34 AM 162304 212-631033-04_TrafBarTermType6B.dgn
Wednesday, August 11, 2010 9:37 AM 110592 212-631036-05_trafbartermtype8.dgn
Wednesday, August 11, 2010 9:34 AM 101888 212-631041-03_trafbartermtype9.dgn
Wednesday, August 11, 2010 9:37 AM 90112 212-631046-04_trafbartermtype10.dgn
Wednesday, August 11, 2010 9:34 AM 96768 212-631051-03_trafbartermtype11.dgn
Wednesday, August 11, 2010 9:37 AM 90112 212-631056-02_trafbartermtype12.dgn
Wednesday, August 11, 2010 9:37 AM 91136 212-635001-01_delineators.dgn
Wednesday, August 11, 2010 9:37 AM 80384 212-635006-03_reflector&termmrkrplacemnt.dgn
Wednesday, August 11, 2010 9:37 AM 158720 212-635011-02_reflectormrkr&mountdetails.dgn
Wednesday, August 11, 2010 9:37 AM 256000 212-636001-02_cablerdgrd-singlestrand.dgn
Wednesday, August 11, 2010 9:37 AM 126976 212-637001-04_concbarrierdblface32in.dgn
Wednesday, August 11, 2010 9:37 AM 132608 212-637006-02_concbarrierdblface42in.dgn
Wednesday, August 11, 2010 9:37 AM 78336 212-638001-02_glarescreenblades.dgn
Wednesday, August 11, 2010 9:37 AM 75264 212-638101-02_concglarescreen.dgn
Wednesday, August 11, 2010 9:37 AM 122368 212-639001-02_sightscrn-precstprestressconcpanelwall.dgn
Wednesday, August 11, 2010 9:37 AM 194560 212-640001-01_sightscrn-chainlinkfence.dgn
Wednesday, August 11, 2010 9:37 AM 102912 212-641001-01_sightscrn-cedarstckadefencetypes.dgn
Wednesday, August 11, 2010 9:37 AM 92160 212-641006-01_sightscrn-woodplankfencetypep.dgn
Wednesday, August 11, 2010 9:37 AM 121856 212-642001-01_shldrumblestrips.dgn
Wednesday, August 11, 2010 9:37 AM 376320 212-664001-02_ChainLinkFence.dgn
Wednesday, August 11, 2010 9:37 AM 354816 212-665001-02_WovenWireFence.dgn
Wednesday, August 11, 2010 9:37 AM 77312 212-666001-01_ROWMrkrs.dgn
Wednesday, August 11, 2010 9:37 AM 70144 212-667001-01_DrainageMrkrs.dgn
Wednesday, August 11, 2010 9:37 AM 125952 212-667101-01_PermanentSurveyMrkrs.dgn
Wednesday, August 11, 2010 9:37 AM 65536 212-668001-01_MethOfResetting-USGS&NGS-Benchmarks.dgn
Wednesday, August 11, 2010 9:37 AM 53760 212-701001-02_OffRdOp-2L2W-15ftMinFromEOP-45MPH+.dgn
Wednesday, August 11, 2010 9:37 AM 60416 212-701006-03_OffRdOp-2L2W-15ftToEOP-45MPH+.dgn
Wednesday, August 11, 2010 9:37 AM 61440 212-701011-02_OffRdMovingOp-2L2W-DayOnly-45MPH+.dgn
Wednesday, August 11, 2010 9:37 AM 61952 212-701101-02_OffRdOp-MultiLn-LessThan15ftToEOP.dgn
Wednesday, August 11, 2010 9:37 AM 53760 212-701106-02_OffRdOp-MultiLn-MoreThan15ftAway.dgn
Wednesday, August 11, 2010 9:34 AM 74240 212-701201-04_LnClosure2L2W-DayOnly.dgn
Wednesday, August 11, 2010 9:34 AM 69632 212-701206-03_LnClosure2L2W-NightOnly45MPH+.dgn
Wednesday, August 11, 2010 9:34 AM 69120 212-701301-04_LnClosure2L2W-ShortTimeOp.dgn
Wednesday, August 11, 2010 9:34 AM 63488 212-701306-03_LnClosure2L2W-SlowMoveOpDayOnly45MPH+.dgn
Wednesday, August 11, 2010 9:37 AM 57856 212-701311-03_LnClosure2L2W-MovingOpDayOnly.dgn
Wednesday, August 11, 2010 9:34 AM 154624 212-701316-05_LnClosure2L2W-BridgeRepair45MPH+.dgn
Wednesday, August 11, 2010 9:34 AM 157696 212-701321-11 LnClosure2L2W-BridgeRepair+Barrier.dgn
Wednesday, August 11, 2010 9:34 AM 72704 212-701326-04_LnClosure2L2W-PvmtWidening45MPH+.dgn
Wednesday, August 11, 2010 9:34 AM 87552 212-701331-04_LnClosure2L2W+RunAround45MPH+.dgn
Wednesday, August 11, 2010 9:34 AM 74240 212-701336-06_LnClosure2L2W-WorkAreasInSeries45MPH+.dgn
Wednesday, August 11, 2010 9:34 AM 99840 212-701400-05_ApprchToLnClosure-FrwayExpway.dgn
Wednesday, August 11, 2010 9:34 AM 80896 212-701401-06_LnClosureFrwayExpway.dgn
Wednesday, August 11, 2010 9:34 AM 74752 212-701402-08_LnClosureFrwayExpway+Barrier.dgn
Wednesday, August 11, 2010 9:34 AM 78336 212-701406-06_LnClosureFrwayExpway-DayOpOnly.dgn
Wednesday, August 11, 2010 9:34 AM 169984 212-701411-07_LnClosureMultiLn-EntrOrExitRamp45MPH+.dgn
Wednesday, August 11, 2010 9:37 AM 91648 212-701416-06_LnClosureFrwayExpway+Crossover&Barrier.dgn
Wednesday, August 11, 2010 9:34 AM 79872 212-701421-03_LnClosureMultiLn-DayOpOnly45-55MPH.dgn
Wednesday, August 11, 2010 9:34 AM 84480 212-701422-03_LnClosureMultiLn-45-55MPH.dgn
Wednesday, August 11, 2010 9:34 AM 82432 212-701423-04_LnClosureMultiln+Barrier45-55MPH.dgn
Wednesday, August 11, 2010 9:34 AM 78336 212-701426-04_LnClosureMultiLn-IntermittantOrMovingOp45MPH+.dgn
Wednesday, August 11, 2010 9:34 AM 78336 212-701427_LnClosureMultiLn-IntermittantOrMovingOpLTorEQ40MPH.dgn
Wednesday, August 11, 2010 9:34 AM 90112 212-701431-06_LnClosureMultiLnUndivided+Crossover45-55MPH.dgn
Wednesday, August 11, 2010 9:34 AM 84992 212-701446-02_TwoLnClosure-FrwayExpway.dgn
Wednesday, August 11, 2010 9:37 AM 123904 212-701451-01_RampClosureFreewayExp.dgn
Wednesday, August 11, 2010 9:35 AM 79360 212-701456-01_PartialExitRampClosureFrewayExp.dgn
Wednesday, August 11, 2010 9:35 AM 73216 212-701501-06_UrbanLnClosure2L2W-Undivided.dgn
Wednesday, August 11, 2010 9:35 AM 81408 212-701502-04_UrbanLnClosure2L2W+BidirectLeftTurnLn.dgn
Wednesday, August 11, 2010 9:35 AM 99840 212-701601-07_UrbanLnClosureMultiLn1W2W+NontrvsableMed.dgn
Wednesday, August 11, 2010 9:35 AM 160768 212-701602-05_UrbanLnClosureMultiLn2W+BidirectLeftTurnLn.dgn
Wednesday, August 11, 2010 9:35 AM 116736 212-701606-07_UrbanLnClosureMultiLn2W+MountableMed.dgn
Wednesday, August 11, 2010 9:35 AM 84480 212-701701-07_UrbanLnClosureMultiLnIntersection.dgn
Wednesday, August 11, 2010 9:38 AM 71168 212-701801-04_LnClosureMultiLn1W2W+CrosswalkOrSWClosure.dgn
Wednesday, August 11, 2010 9:38 AM 216064 212-701901-01_TrafCntrlDevices.dgn
Wednesday, August 11, 2010 9:38 AM 204288 212-704001-06_TempConcBarrier.dgn
Wednesday, August 11, 2010 9:38 AM 85504 212-720001-01_SignPanelMountDetails.dgn
Wednesday, August 11, 2010 9:38 AM 80384 212-720006-02_SignPanelErectDetails.dgn
Wednesday, August 11, 2010 9:38 AM 64000 212-720011-01_MetalPostsForSignsMrkrs&Delineators.dgn
Wednesday, August 11, 2010 9:38 AM 72192 212-720016-02_MastArmMountedStNameSigns.dgn
Wednesday, August 11, 2010 9:38 AM 177152 212-720021-02_SignPanels-ExtrudedAlumType.dgn
Wednesday, August 11, 2010 9:38 AM 91136 212-728001-01_TelescopingSteelSignSupport.dgn
Wednesday, August 11, 2010 9:38 AM 71168 212-729001-01_AppOfTypesA&BPosts.dgn
Wednesday, August 11, 2010 9:38 AM 73728 212-731001-01_BaseForTelescopingSteelSignSupport.dgn
Wednesday, August 11, 2010 9:38 AM 148992 212-780001-02_TypicalPvmtMrkings.dgn
Wednesday, August 11, 2010 9:38 AM 92672 212-781001-03_TypicalAppRaisedReflcPvmtMrkrs.dgn
Wednesday, August 11, 2010 9:38 AM 76288 212-805001-01_ElecSrvcInstallDetails.dgn
Wednesday, August 11, 2010 9:38 AM 98816 212-814001-02_Handholes.dgn
Wednesday, August 11, 2010 9:38 AM 176128 212-814006-02_DoubleHandholes.dgn
Wednesday, August 11, 2010 9:35 AM 116224 212-825001-01_LightingControllerPoleMount240V.dgn
Wednesday, August 11, 2010 9:35 AM 80896 212-825006-01_LightingControllerPoleMount480V.dgn
Wednesday, August 11, 2010 9:35 AM 85504 212-825011-01_LightingControllerPedestalMount240V.dgn
Wednesday, August 11, 2010 9:35 AM 86528 212-825016-01_LightingControllerPedestalMount480V.dgn
Wednesday, August 11, 2010 9:35 AM 86016 212-825021-01_LightingControllerBaseMount240V.dgn
Wednesday, August 11, 2010 9:35 AM 87552 212-825026-01_LightingControllerBaseMount480V.dgn
Wednesday, August 11, 2010 9:34 AM 125952 212-835001_LightTower.dgn
Wednesday, August 11, 2010 9:38 AM 86016 212-836001_LightPoleFoundation.dgn
Wednesday, August 11, 2010 9:38 AM 101376 212-837001_LightTowerFoundation.dgn
Wednesday, August 11, 2010 9:38 AM 104448 212-857001-01_StdPhaseDesignationDiagrams&PhaseSeq.dgn
Wednesday, August 11, 2010 9:38 AM 56320 212-857006-01_SupervisedRRInterconnectCircuit-.dgn
Wednesday, August 11, 2010 9:38 AM 50688 212-862001-01_UPS.dgn
Wednesday, August 11, 2010 9:38 AM 119296 212-873001-02_TrafSignalGround&Bond.dgn
Wednesday, August 11, 2010 9:38 AM 62464 212-876001-01_PedestrianPushButtonPost.dgn
Wednesday, August 11, 2010 9:38 AM 74752 212-877001-04_SteelMastArmAssembly&Pole16'thre55'.dgn
Wednesday, August 11, 2010 9:38 AM 78336 212-877002-01_SteelMastArmAssembly&Pole56'thru75'.dgn
Wednesday, August 11, 2010 9:38 AM 92672 212-877006-03_SteelMastArmAssembly&Pole+DualMastArms.dgn
Wednesday, August 11, 2010 9:38 AM 88576 212-877011-04_SteelComboMastArmAssembly&Pole16'thru55'.dgn
Wednesday, August 11, 2010 9:38 AM 91136 212-877012-01_SteelComboMastArmAssembly&Pole56'thru75'.dgn
Wednesday, August 11, 2010 9:38 AM 138752 212-878001-08_ConcreteFoundationDetails.dgn
Wednesday, August 11, 2010 9:38 AM 95232 212-880001-01_SpanWireMountSignals&FlashBeaconInstall.dgn
Wednesday, August 11, 2010 9:38 AM 79872 212-880006-01_TrfSignalMountDetails-Post&BracketMount.dgn
Wednesday, August 11, 2010 9:38 AM 147456 212-886001-01_DetectorLoopInstallations.dgn
Wednesday, August 11, 2010 9:38 AM 62464 212-886006-01_TypicalLayoutsForDetectionLoops.dgn
Wednesday, August 11, 2010 9:38 AM 199680 212-BLR10-6_PCCPvmtSpecial-NonReinf.dgn
Wednesday, August 11, 2010 9:38 AM 154624 212-BLR14-10_PCCPvmt-NonReinf.dgn
Wednesday, August 11, 2010 9:38 AM 217088 212-BLR17-4_TrafCntrlDevices-DayLaborConstr.dgn
Wednesday, August 11, 2010 9:38 AM 82944 212-BLR18-5_TrafCntrlDevices-DayLaborMaint.dgn
Wednesday, August 11, 2010 9:38 AM 224768 212-BLR20-6_TrafBarrierTermType5R.dgn
Wednesday, August 11, 2010 9:38 AM 86528 212-BLR21-8_TypAppTrafCntrlDevices-ConstrOnRuralLocalHwys.dgn
Wednesday, August 11, 2010 9:38 AM 86528 212-BLR22-6_TypAppTrafCntrlDevices-ConstrOnRuralLocalHwys(2L2W-RdClsdToThruTraf).dgn
Wednesday, August 11, 2010 9:38 AM 213504 212-BLR23-3_TrafBarrierTermType1.dgn
Wednesday, August 11, 2010 9:38 AM 138240 212-BLR24-2_MailboxTurn-LocalRds.dgn
Wednesday, August 11, 2010 9:38 AM 76288 212-BLR25-1_Type1ABarrForNonNHSRts.dgn
Wednesday, August 11, 2010 9:38 AM 353792 212-BLR26-2_SteelPlateBeemGR27.5inchHt.dgn
Wednesday, August 11, 2010 9:38 AM 173056 212-BLR27-1_TrafBarTermType5A.dgn
Friday, July 08, 2011 10:32 AM <dir> _vti_cnf